Change the Weather History Date:

Saturday, June 15, 2013

  Actual Average Record
Temperature  
Mean Temperature 79 °F -  
Max Temperature 89 °F 85 °F 99 °F (2008)
Min Temperature 69 °F 63 °F 57 °F (1999)
Cooling Degree Days 14    
Growing Degree Days 29 (Base 50)    
Moisture  
Dew Point 64 °F    
Average Humidity 68    
Maximum Humidity 90    
Minimum Humidity 35    
Precipitation  
Precipitation 0.18 in - - ()
Sea Level Pressure  
Sea Level Pressure 29.94 in    
Wind  
Wind Speed 13 mph (SSW)    
Max Wind Speed 25 mph    
Max Gust Speed 36 mph    
Visibility 9 miles    
Events Rain , Thunderstorm    
Averages and records for this station are not official NWS values.
T = Trace of Precipitation, MM = Missing Value Source: NWS Daily Summary

Daily Weather History Graph

Daily Weather History Graph

Search for Another Location

Airport or City:

Trip Planner

Search our weather history database for the weather conditions in past years. The results will help you decide how hot, cold, wet, or windy it might be!

Date:

Astronomy

Jun. 15, 2013 Rise Set
Actual Time 6:21 AM CDT 8:53 PM CDT
Civil Twilight 5:51 AM CDT 9:23 PM CDT
Nautical Twilight 5:14 AM CDT 10:00 PM CDT
Astronomical Twilight 4:33 AM CDT 10:41 PM CDT
Moon 12:44 PM CDT (6/15) 12:41 AM CDT (6/15)
Length of Visible Light 15h 31m
Length of Day
14h 32m
Waxing Crescent, 40% of the Moon is Illuminated
Jun 15
Waxing Crescent
Jun 16
First Quarter
Jun 23
Full
Jun 29
Last Quarter
Jul 8
New

Hourly Weather History & Observations

Time (CDT) Temp. Heat Index Dew Point Humidity Pressure Visibility Wind Dir Wind Speed Gust Speed Precip Events Conditions
12:53 AM 79.0 °F - 60.1 °F 52% 29.93 in 10.0 mi SW 16.1 mph - N/A   Clear
1:53 AM 75.9 °F - 60.1 °F 58% 29.91 in 10.0 mi SW 11.5 mph - N/A   Clear
2:53 AM 75.0 °F - 61.0 °F 62% 29.90 in 10.0 mi SSW 9.2 mph - N/A   Clear
3:53 AM 75.0 °F - 61.0 °F 62% 29.90 in 10.0 mi South 9.2 mph - N/A   Clear
4:53 AM 73.9 °F - 62.1 °F 66% 29.91 in 10.0 mi SSW 5.8 mph - N/A   Clear
5:53 AM 72.0 °F - 64.9 °F 78% 29.92 in 10.0 mi SW 4.6 mph - 0.00 in Rain Light Rain
6:53 AM 72.0 °F - 64.9 °F 78% 29.94 in 10.0 mi South 4.6 mph - 0.00 in   Partly Cloudy
7:48 AM 73.4 °F - 64.4 °F 73% 30.03 in 10.0 mi SW 12.7 mph - 0.00 in Thunderstorm Thunderstorm
7:53 AM 71.1 °F - 66.0 °F 84% 29.96 in 9.0 mi SW 13.8 mph - 0.00 in Rain , Thunderstorm Light Thunderstorms and Rain
8:06 AM 69.8 °F - 66.2 °F 88% 30.03 in 6.0 mi South 8.1 mph - 0.01 in Rain Light Rain
8:21 AM 69.8 °F - 66.2 °F 88% 30.05 in 2.5 mi South 11.5 mph - 0.08 in Rain Light Rain
8:35 AM 69.8 °F - 66.2 °F 88% 30.05 in 6.0 mi SSE 10.4 mph - 0.11 in Rain Light Rain
8:53 AM 72.0 °F - 68.0 °F 87% 29.99 in 10.0 mi South 10.4 mph - 0.11 in Rain Light Rain
9:53 AM 72.0 °F - 66.9 °F 84% 30.00 in 10.0 mi SW 20.7 mph 27.6 mph 0.01 in Rain Light Rain
10:37 AM 69.8 °F - 66.2 °F 88% 30.07 in 5.0 mi SSE 12.7 mph - 0.04 in Rain , Thunderstorm Light Thunderstorms and Rain
10:53 AM 70.0 °F - 66.9 °F 90% 29.99 in 10.0 mi SSW 12.7 mph - 0.04 in Rain Light Rain
11:04 AM 71.6 °F - 66.2 °F 83% 30.05 in 10.0 mi SW 12.7 mph - 0.02 in Rain Light Rain
11:53 AM 73.0 °F - 66.9 °F 81% 29.99 in 10.0 mi SSW 25.3 mph 33.4 mph 0.02 in Rain Light Rain
12:53 PM 79.0 °F - 64.0 °F 60% 29.94 in 10.0 mi SW 20.7 mph 31.1 mph 0.00 in   Clear
1:53 PM 84.0 °F 84.4 °F 61.0 °F 46% 29.92 in 10.0 mi South 20.7 mph 31.1 mph N/A   Clear
2:53 PM 87.1 °F 86.1 °F 57.9 °F 37% 29.91 in 10.0 mi SSW 24.2 mph 31.1 mph N/A   Clear
3:53 PM 89.1 °F 88.0 °F 57.9 °F 35% 29.88 in 10.0 mi South 23.0 mph 35.7 mph N/A   Clear
4:53 PM 88.0 °F 87.9 °F 61.0 °F 40% 29.87 in 10.0 mi SSW 25.3 mph 33.4 mph N/A   Partly Cloudy
5:53 PM 88.0 °F 87.9 °F 61.0 °F 40% 29.85 in 10.0 mi SSW 20.7 mph 29.9 mph N/A   Partly Cloudy
6:53 PM 84.9 °F 85.4 °F 62.1 °F 46% 29.84 in 10.0 mi SSW 20.7 mph 27.6 mph N/A   Clear
7:53 PM 84.0 °F 85.4 °F 64.0 °F 51% 29.85 in 10.0 mi SSW 17.3 mph 25.3 mph N/A   Clear
8:53 PM 79.0 °F - 64.0 °F 60% 29.86 in 10.0 mi South 8.1 mph - N/A   Clear
9:53 PM 75.9 °F - 64.0 °F 67% 29.89 in 10.0 mi South 9.2 mph - N/A   Clear
10:53 PM 73.0 °F - 64.0 °F 73% 29.94 in 10.0 mi SE 9.2 mph - N/A   Clear
11:53 PM 73.0 °F - 66.9 °F 81% 29.94 in 10.0 mi SSE 11.5 mph - N/A   Clear